Total_Precipitation_Accumulation
0.12 0.10 0.10 0.14 0.11 0.08 0.04 0.02 0.01 0.02 0.01 0.02 0.02 0.02 0.02 0.03 0.03 0.06 0.06 0.05 0.04 0.06 0.17 0.36 0.53 0.60 0.66 0.66 0.62 0.59 0.59 0.60 0.65 0.69 0.70 0.71 0.73 0.77 0.84 0.86 0.83 0.82 0.79 0.80 0.85 0.88 0.86 0.82 0.76
0.15 0.16 0.18 0.20 0.13 0.07 0.04 0.02 0.01 0.01 0.01 0.01 0.01 0.02 0.02 0.03 0.02 0.04 0.08 0.11 0.07 0.07 0.16 0.29 0.50 0.60 0.65 0.66 0.67 0.68 0.71 0.71 0.76 0.78 0.75 0.71 0.73 0.78 0.84 0.84 0.84 0.82 0.80 0.78 0.78 0.77 0.76 0.68 0.59
0.24 0.28 0.27 0.22 0.10 0.06 0.04 0.02 0.01 0.01 0.01 0.01 0.01 0.01 0.03 0.04 0.04 0.05 0.10 0.13 0.11 0.11 0.17 0.33 0.53 0.64 0.67 0.71 0.72 0.73 0.76 0.82 0.85 0.84 0.82 0.82 0.84 0.84 0.86 0.85 0.83 0.79 0.77 0.78 0.77 0.71 0.68 0.64 0.59
0.35 0.40 0.32 0.19 0.06 0.04 0.03 0.03 0.01 0.00 0.00 0.00 0.01 0.02 0.02 0.03 0.04 0.08 0.12 0.18 0.17 0.17 0.22 0.38 0.56 0.71 0.74 0.77 0.77 0.78 0.81 0.85 0.89 0.86 0.83 0.86 0.94 0.93 0.86 0.81 0.82 0.77 0.74 0.76 0.79 0.73 0.70 0.63 0.57
0.48 0.44 0.32 0.14 0.03 0.02 0.02 0.02 0.01 0.00 0.01 0.01 0.01 0.02 0.04 0.04 0.05 0.10 0.16 0.22 0.25 0.24 0.28 0.42 0.63 0.76 0.83 0.87 0.90 0.93 0.94 0.94 0.91 0.90 0.86 0.85 0.88 0.92 0.89 0.80 0.77 0.75 0.73 0.77 0.78 0.75 0.71 0.67 0.60
0.58 0.47 0.27 0.10 0.03 0.03 0.02 0.01 0.01 0.01 0.01 0.02 0.03 0.03 0.06 0.08 0.10 0.14 0.15 0.21 0.26 0.31 0.37 0.54 0.79 0.89 0.93 0.97 0.93 0.99 1.07 1.10 1.06 1.00 0.94 0.93 0.91 0.88 0.89 0.80 0.78 0.79 0.75 0.72 0.70 0.72 0.68 0.64 0.61
0.64 0.46 0.23 0.08 0.05 0.05 0.04 0.02 0.01 0.01 0.01 0.02 0.03 0.05 0.08 0.14 0.18 0.17 0.18 0.22 0.27 0.33 0.44 0.62 0.85 0.97 1.09 1.10 1.03 1.02 1.04 1.13 1.13 1.08 1.03 0.99 0.94 0.88 0.86 0.82 0.77 0.78 0.80 0.76 0.67 0.67 0.69 0.60 0.56
0.68 0.58 0.29 0.11 0.07 0.06 0.06 0.05 0.02 0.02 0.02 0.02 0.04 0.07 0.08 0.15 0.21 0.25 0.27 0.28 0.35 0.41 0.52 0.69 0.87 0.99 1.10 1.18 1.13 1.07 1.06 1.09 1.16 1.12 1.06 1.02 1.01 0.98 0.90 0.79 0.82 0.80 0.78 0.81 0.76 0.70 0.74 0.69 0.57
0.82 0.77 0.39 0.15 0.10 0.08 0.07 0.07 0.04 0.03 0.04 0.05 0.05 0.07 0.09 0.17 0.24 0.33 0.41 0.44 0.47 0.55 0.68 0.81 0.93 1.05 1.17 1.24 1.17 1.19 1.19 1.21 1.26 1.24 1.21 1.15 1.12 1.11 1.01 0.85 0.81 0.85 0.83 0.82 0.82 0.77 0.76 0.76 0.62
0.91 0.72 0.34 0.15 0.14 0.13 0.09 0.08 0.06 0.07 0.07 0.07 0.07 0.11 0.16 0.26 0.36 0.38 0.41 0.46 0.50 0.59 0.73 0.88 0.98 1.11 1.29 1.35 1.34 1.40 1.31 1.26 1.30 1.21 1.18 1.21 1.20 1.23 1.12 1.04 0.91 0.89 0.91 0.91 0.89 0.85 0.83 0.79 0.67
0.76 0.54 0.28 0.18 0.19 0.19 0.14 0.10 0.08 0.10 0.08 0.08 0.10 0.13 0.21 0.31 0.40 0.44 0.44 0.47 0.51 0.61 0.74 0.90 1.05 1.20 1.38 1.41 1.39 1.38 1.37 1.29 1.33 1.32 1.22 1.20 1.26 1.23 1.26 1.22 1.19 1.11 1.03 1.01 1.01 1.01 0.93 0.86 0.77
0.65 0.43 0.28 0.23 0.22 0.24 0.20 0.16 0.13 0.10 0.08 0.09 0.12 0.16 0.22 0.32 0.38 0.42 0.51 0.58 0.63 0.70 0.81 0.94 1.11 1.30 1.46 1.49 1.51 1.43 1.32 1.26 1.23 1.33 1.35 1.30 1.24 1.14 1.07 1.07 1.05 1.05 1.03 1.03 1.04 1.00 0.94 0.93 0.88
0.61 0.44 0.30 0.23 0.23 0.23 0.23 0.20 0.18 0.11 0.07 0.11 0.15 0.21 0.26 0.32 0.36 0.44 0.56 0.65 0.71 0.76 0.87 0.96 1.11 1.26 1.47 1.70 1.68 1.64 1.48 1.32 1.27 1.31 1.36 1.33 1.27 1.18 1.08 0.99 1.02 0.98 0.94 0.95 0.97 0.90 0.83 0.81 0.79
0.54 0.44 0.35 0.28 0.25 0.24 0.26 0.22 0.22 0.14 0.12 0.17 0.21 0.24 0.30 0.34 0.40 0.51 0.59 0.67 0.74 0.82 0.94 1.04 1.16 1.25 1.41 1.64 1.75 1.74 1.66 1.56 1.50 1.38 1.32 1.35 1.36 1.28 1.18 1.05 1.02 1.00 0.96 0.95 0.91 0.88 0.81 0.75 0.68
0.55 0.58 0.46 0.32 0.27 0.27 0.32 0.31 0.25 0.17 0.20 0.21 0.24 0.26 0.32 0.41 0.43 0.51 0.57 0.70 0.82 0.89 1.00 1.14 1.26 1.38 1.43 1.50 1.74 1.81 1.80 1.70 1.65 1.50 1.46 1.48 1.45 1.43 1.38 1.25 1.10 0.98 0.94 0.96 0.99 0.95 0.91 0.82 0.72
0.75 0.83 0.67 0.36 0.29 0.31 0.45 0.41 0.23 0.22 0.29 0.29 0.29 0.32 0.39 0.47 0.50 0.53 0.58 0.73 0.92 0.97 1.04 1.23 1.35 1.45 1.47 1.47 1.66 1.77 1.84 1.88 1.82 1.74 1.64 1.63 1.62 1.57 1.53 1.46 1.34 1.20 1.07 1.01 1.00 0.96 0.91 0.85 0.79
1.06 0.93 0.63 0.40 0.32 0.38 0.47 0.45 0.29 0.26 0.35 0.37 0.37 0.37 0.43 0.52 0.55 0.58 0.61 0.71 0.84 0.91 1.06 1.28 1.39 1.46 1.52 1.52 1.62 1.79 1.81 1.84 1.93 1.98 1.89 1.80 1.81 1.74 1.66 1.58 1.54 1.51 1.38 1.20 1.08 1.03 0.93 0.85 0.79
1.02 0.74 0.52 0.44 0.36 0.41 0.46 0.41 0.31 0.31 0.37 0.36 0.38 0.39 0.42 0.49 0.51 0.58 0.65 0.76 0.83 0.93 1.10 1.31 1.50 1.57 1.60 1.66 1.66 1.80 1.94 1.81 1.74 1.85 1.91 1.91 1.94 1.90 1.85 1.73 1.63 1.65 1.60 1.48 1.31 1.17 1.06 0.94 0.85
0.71 0.69 0.55 0.41 0.39 0.44 0.44 0.42 0.37 0.33 0.35 0.33 0.29 0.35 0.43 0.45 0.48 0.58 0.67 0.81 0.91 0.99 1.11 1.28 1.46 1.58 1.61 1.65 1.64 1.59 1.72 1.77 1.63 1.54 1.70 1.88 1.99 2.09 2.10 1.95 1.84 1.77 1.68 1.52 1.44 1.40 1.31 1.16 1.03
0.75 0.75 0.58 0.42 0.42 0.52 0.50 0.47 0.38 0.32 0.34 0.31 0.29 0.32 0.41 0.46 0.50 0.57 0.65 0.79 0.88 0.99 1.06 1.22 1.45 1.54 1.52 1.49 1.56 1.57 1.60 1.66 1.67 1.54 1.56 1.71 1.94 2.14 2.34 2.23 2.05 1.93 1.82 1.72 1.57 1.50 1.50 1.42 1.23
0.77 0.66 0.54 0.53 0.54 0.62 0.67 0.63 0.39 0.32 0.31 0.31 0.33 0.35 0.43 0.47 0.51 0.56 0.62 0.73 0.85 1.00 1.05 1.08 1.30 1.57 1.59 1.57 1.68 1.73 1.81 1.83 1.82 1.68 1.54 1.58 1.70 1.85 2.00 2.11 2.01 1.99 1.93 1.85 1.73 1.59 1.55 1.58 1.44
0.74 0.43 0.45 0.56 0.76 0.81 0.74 0.90 0.49 0.34 0.32 0.31 0.35 0.42 0.45 0.48 0.51 0.58 0.63 0.74 0.83 0.98 1.16 1.17 1.23 1.46 1.67 1.66 1.64 1.64 1.72 1.72 1.71 1.63 1.51 1.51 1.63 1.74 1.80 1.91 1.96 1.84 1.77 1.72 1.70 1.65 1.53 1.56 1.59
0.58 0.39 0.47 0.64 0.86 0.88 0.71 0.89 0.57 0.35 0.37 0.31 0.30 0.35 0.39 0.45 0.54 0.60 0.66 0.78 0.90 1.03 1.22 1.32 1.34 1.36 1.55 1.62 1.57 1.55 1.56 1.60 1.69 1.70 1.62 1.55 1.62 1.74 1.81 1.83 1.88 1.92 1.80 1.65 1.59 1.63 1.63 1.58 1.54
0.54 0.62 0.77 0.91 1.22 1.28 0.57 0.61 0.60 0.49 0.49 0.38 0.32 0.36 0.38 0.46 0.58 0.63 0.70 0.84 0.99 1.11 1.28 1.38 1.45 1.36 1.41 1.63 1.60 1.49 1.45 1.46 1.56 1.67 1.75 1.71 1.65 1.70 1.78 1.83 1.78 1.78 1.84 1.81 1.65 1.57 1.61 1.58 1.52
0.84 1.24 1.88 1.99 1.83 1.05 0.32 0.39 0.56 0.46 0.45 0.41 0.39 0.42 0.41 0.46 0.58 0.64 0.73 0.87 0.96 1.07 1.20 1.34 1.38 1.39 1.38 1.52 1.61 1.51 1.41 1.40 1.39 1.46 1.57 1.65 1.67 1.63 1.66 1.74 1.77 1.71 1.70 1.74 1.72 1.64 1.60 1.57 1.56
0.88 1.08 1.48 1.44 0.92 0.44 0.26 0.40 0.47 0.39 0.33 0.33 0.34 0.39 0.40 0.41 0.49 0.58 0.68 0.80 0.90 0.94 1.05 1.20 1.30 1.30 1.33 1.46 1.62 1.63 1.49 1.46 1.35 1.35 1.44 1.52 1.53 1.50 1.48 1.53 1.60 1.57 1.52 1.54 1.61 1.59 1.53 1.55 1.58
0.81 0.83 0.77 1.05 0.70 0.47 0.39 0.37 0.36 0.27 0.24 0.27 0.30 0.34 0.38 0.40 0.46 0.52 0.62 0.68 0.74 0.84 0.93 1.04 1.22 1.31 1.32 1.35 1.53 1.73 1.72 1.57 1.44 1.32 1.36 1.42 1.43 1.45 1.48 1.48 1.48 1.42 1.38 1.36 1.38 1.42 1.40 1.43 1.48
0.70 0.78 0.95 1.32 1.10 0.66 0.40 0.36 0.48 0.38 0.34 0.30 0.31 0.33 0.34 0.39 0.49 0.53 0.57 0.60 0.66 0.76 0.84 0.93 1.11 1.25 1.30 1.30 1.36 1.56 1.80 1.73 1.62 1.56 1.40 1.37 1.38 1.41 1.46 1.48 1.48 1.42 1.32 1.32 1.33 1.29 1.24 1.30 1.35
0.75 0.94 1.13 1.20 0.95 0.82 0.54 0.47 0.51 0.44 0.38 0.34 0.32 0.31 0.32 0.36 0.44 0.49 0.51 0.59 0.64 0.71 0.82 0.92 1.02 1.13 1.20 1.21 1.25 1.35 1.57 1.75 1.77 1.69 1.54 1.39 1.37 1.35 1.32 1.36 1.40 1.39 1.33 1.31 1.38 1.35 1.28 1.29 1.29
0.67 0.81 0.99 1.26 0.95 0.64 0.62 0.54 0.36 0.30 0.31 0.30 0.30 0.30 0.31 0.35 0.38 0.43 0.47 0.56 0.61 0.67 0.79 0.86 0.94 1.07 1.15 1.17 1.21 1.28 1.36 1.51 1.72 1.67 1.52 1.36 1.32 1.34 1.34 1.31 1.33 1.33 1.33 1.34 1.36 1.34 1.28 1.28 1.27